Location: Edoum�
(0.9447°N, 10.6482°E)
Time: 21:18:28
(UTC+00:00)

Ariane 3 Deb - Pass Details

Date: 07 October 2020
Orbit: 230 x 18400 km, 6.8° (Epoch: 26 October)

Event Time Altitude Azimuth Distance (km) Brightness Sun altitude
Exits shadow 02:29:47 62° 19° (NNE) 1,802 4.7 -38.7°
Drops below altitude 10° 03:00:51 10° 87° (E) 11,829 9.9 -31.0°
Sets 03:33:23 0° 91° (E) 18,460 11.5 -22.9°
